Location: Gwatt
(46.7204°N, 7.6223°E)
Time: 14:10:08
(UTC+00:00)

S-56A Canister/Altair - Pass Details

Date: 21 January 2021
Orbit: 632 x 2501 km, 38.9° (Epoch: 28 February)

Event Time Altitude Azimuth Distance (km) Brightness Sun altitude
Rises 06:43:17 0° 265° (W) 3,145 - -4.2°
Exits shadow 06:43:25 - 265° (W) 3,097 10.1 -4.2°
Reaches altitude 10° 06:45:38 10° 254° (WSW) 2,361 9.6 -3.9°
Maximum altitude 06:50:26 31° 193° (SSW) 1,630 9.4 -3.1°
Drops below altitude 10° 06:56:57 10° 135° (SE) 3,260 12.3 -2.1°
Sets 07:00:49 0° 126° (SE) 4,567 14.1 -1.5°
